[[{"header":{"parameterUnit":"m.s-1","parameterCategory":1,"la1":30.2991,"la2":30.254,"lo1":-89.0895,"lo2":-89.0444,"dy":0.0017,"dx":0.0017,"nx":28,"ny":28,"refTime":"2023-10-10T21:00:00:Z","depth":0,"parameterNumber":2,"parameterNumberName":"U-component_of_WINDS"},"data":[0,0,0,0,0,0,0,0,0,0,0,0,0,0,0,0,0,0,0,0,0,0,0,0,0,0,0,0,0,0,0,0,0,0,0,0,0,0,0,0,0,0,0,0,0,0,0,0,0,0,0,0,0,0,0,0,0,0,-0.3686,-0.3687,0,-0.3728,-0.3729,-0.3729,-0.3717,-0.3716,-0.3715,-0.3714,-0.3759,-0.376,-0.3762,0,0,0,0,0,0,0,0,0,0,0,0,0,-0.3596,-0.3598,-0.3686,-0.3687,-0.3687,-0.3728,-0.3729,-0.3729,-0.3717,-0.3716,-0.3715,-0.3714,-0.3758,-0.376,-0.3763,0,0,0,0,0,0,0,0,0,0,0,0,0,-0.3636,-0.3598,-0.3686,-0.3686,-0.3686,-0.3728,-0.3729,-0.3729,-0.3717,-0.3716,-0.3715,-0.3714,-0.3757,-0.376,-0.3763,-0.3807,0,0,-0.3772,-0.3773,0,0,0,0,0,0,0,0,-0.3634,-0.364,-0.3686,-0.3686,-0.3687,-0.3716,-0.3713,-0.3755,-0.3718,-0.3706,-0.3714,-0.3713,-0.3745,-0.3749,-0.376,-0.3809,-0.3811,-0.3772,-0.3774,-0.3775,-0.3776,0,0,0,0,0,0,0,-0.3631,-0.3638,-0.3703,-0.3686,-0.3687,-0.3684,-0.3688,-0.3721,-0.3732,-0.3707,-0.3706,-0.3711,-0.3746,-0.3757,-0.3761,-0.3812,-0.3772,-0.3775,-0.3777,-0.3778,-0.3898,-0.39,0,0,0,0,0,0,-0.3628,-0.3635,-0.3701,-0.3704,-0.3657,-0.3687,-0.3692,-0.3708,-0.3732,-0.3734,-0.3712,-0.371,-0.3753,-0.3758,-0.3763,-0.3816,-0.3775,-0.3778,-0.378,-0.3897,-0.3899,-0.39,0,0,0,0,0,0,-0.3626,-0.3634,-0.37,-0.3669,-0.3678,-0.369,-0.3708,-0.3709,-0.3721,-0.3736,-0.3738,-0.3722,-0.3752,-0.3758,-0.3796,-0.3817,-0.3779,-0.3782,-0.3895,-0.3897,-0.3899,-0.3923,0,0,0,0,0,0,-0.3623,-0.3633,-0.365,-0.367,-0.3679,-0.3733,-0.3709,-0.3711,-0.3726,-0.3724,-0.3746,-0.3748,-0.3751,-0.3791,-0.3799,-0.382,-0.3784,-0.3893,-0.3896,-0.3899,-0.392,-0.3925,-0.393,0,0,0,0,0,-0.362,-0.3656,-0.3651,-0.3659,-0.3701,-0.3734,-0.3739,-0.3742,-0.3728,-0.3745,-0.3754,-0.3747,-0.3813,-0.3795,-0.3804,-0.3826,-0.3892,-0.3895,-0.3899,-0.3918,-0.3924,-0.393,0,0,0,0,0,0,-0.3639,-0.3658,-0.3654,-0.3696,-0.3713,-0.3732,-0.3754,-0.3749,-0.3771,-0.3768,-0.3771,-0.3776,-0.3814,-0.3824,-0.3804,-0.387,-0.3851,-0.3856,-0.3862,-0.3869,-0.3873,-0.3871,-0.3787,0,0,0,0,0,-0.3648,-0.3673,-0.3688,-0.3724,-0.3733,-0.3742,-0.3756,-0.3757,-0.3775,-0.3782,-0.3794,-0.3812,-0.3837,-0.3853,-0.3877,-0.3921,-0.3925,-0.394,-0.3945,-0.3949,-0.3954,-0.3977,-0.3984,-0.3911,-0.3911,-0.3911,0,0,-0.3667,-0.368,-0.3696,-0.3728,-0.3742,-0.3768,-0.3748,-0.3776,-0.3796,-0.3787,-0.3823,-0.3832,-0.3852,-0.3893,-0.3912,-0.3902,-0.3975,-0.3953,-0.3956,-0.3959,-0.3981,-0.3988,-0.3994,-0.3913,-0.3913,-0.3912,0,0,-0.3715,-0.3728,-0.3759,-0.3772,-0.3792,-0.3798,-0.3805,-0.3824,-0.383,-0.3866,-0.3859,-0.3882,-0.3924,-0.3939,-0.3951,-0.4003,-0.3997,-0.4011,-0.4037,-0.4059,-0.4065,-0.407,-0.4089,-0.4095,-0.4015,-0.4015,-0.4015,0,-0.3736,-0.3775,-0.3776,-0.3804,-0.3819,-0.381,-0.3842,-0.3855,-0.3882,-0.3892,-0.3881,-0.3933,-0.3946,-0.399,-0.4003,-0.4013,-0.4022,-0.4009,-0.4064,-0.4069,-0.4074,-0.4092,-0.4099,-0.4016,-0.4016,-0.4016,-0.4016,0,-0.38,-0.3827,-0.385,-0.3875,-0.3892,-0.3922,-0.3927,-0.3944,-0.3942,-0.3949,-0.3985,-0.4,-0.4026,-0.4036,-0.4036,-0.408,-0.4074,-0.4063,-0.4044,-0.4083,-0.4099,-0.4106,-0.4019,-0.4018,-0.4018,-0.4017,0,0,-0.3863,-0.3887,-0.3896,-0.3907,-0.3927,-0.3948,-0.3977,-0.4002,-0.4017,-0.4035,-0.406,-0.4095,-0.4085,-0.41,-0.41,-0.412,-0.416,-0.4107,-0.4108,-0.4117,-0.4209,-0.4217,-0.4225,-0.4156,-0.4157,-0.4158,-0.4208,0,-0.3913,-0.3964,-0.3965,-0.4013,-0.4037,-0.4029,-0.4054,-0.4069,-0.4076,-0.4097,-0.4104,-0.4129,-0.4114,-0.4123,-0.4142,-0.4151,-0.4179,-0.4147,-0.4179,-0.418,-0.4175,-0.4234,-0.4243,-0.4289,-0.4214,-0.4215,-0.4216,0,-0.3979,-0.3998,-0.4048,-0.4064,-0.4074,-0.4097,-0.412,-0.414,-0.4157,-0.416,-0.4176,-0.4173,-0.4202,-0.4181,-0.4222,-0.42,-0.4213,-0.4219,-0.4221,-0.4225,-0.4201,-0.424,-0.4304,-0.4311,-0.4226,-0.4226,-0.4225,0,-0.402,-0.4058,-0.4093,-0.4103,-0.4123,-0.4139,-0.4148,-0.4163,-0.4178,-0.4197,-0.4207,-0.4229,-0.4242,-0.4259,-0.4263,-0.4247,-0.4303,-0.4282,-0.4307,-0.4307,-0.432,-0.4319,-0.4388,-0.4327,-0.4327,-0.4327,-0.4327,0,-0.4076,-0.4107,-0.4112,-0.4133,-0.4167,-0.4167,-0.4201,-0.4208,-0.4222,-0.4245,-0.4238,-0.426,-0.4262,-0.4284,-0.4286,-0.4319,-0.4325,-0.4328,-0.4329,-0.4329,-0.4329,-0.4338,-0.4335,-0.4329,-0.4328,-0.4328,-0.4328,0,-0.4128,-0.4133,-0.417,-0.4185,-0.4189,-0.4214,-0.4227,-0.4247,-0.4252,-0.428,-0.4287,-0.4295,-0.432,-0.4324,-0.4354,-0.4356,-0.4395,-0.4392,-0.439,-0.4389,-0.4414,-0.4411,-0.4491,-0.4502,-0.4434,-0.4434,-0.4435,0,-0.4164,-0.4188,-0.4205,-0.4219,-0.4229,-0.4253,-0.4267,-0.4268,-0.4283,-0.4303,-0.4321,-0.4345,-0.4365,-0.4405,-0.4414,-0.4436,-0.4434,-0.446,-0.4437,-0.4437,-0.4435,-0.4433,-0.4436,-0.4465,-0.4466,-0.4466,-0.4467,0,-0.4228,-0.4229,-0.425,-0.4271,-0.4289,-0.4306,-0.4322,-0.4334,-0.4337,-0.4354,-0.438,-0.4395,-0.4425,-0.4449,-0.4471,-0.448,-0.4474,-0.4474,-0.4481,-0.4482,-0.4479,-0.4481,-0.4402,-0.4472,-0.4472,-0.4471,-0.4471,-0.4471,-0.4274,-0.4294,-0.4309,-0.4332,-0.4344,-0.4359,-0.4379,-0.4385,-0.4406,-0.4431,-0.4429,-0.4457,-0.4472,-0.4501,-0.4512,-0.4533,-0.4525,-0.4535,-0.4537,-0.454,-0.4542,-0.4475,-0.4537,-0.4537,-0.4537,-0.4537,-0.4536,0,-0.4337,-0.4346,-0.4367,-0.439,-0.4408,-0.44,-0.4417,-0.4433,-0.4457,-0.4472,-0.4491,-0.4519,-0.4542,-0.4552,-0.4574,-0.459,-0.4587,-0.4595,-0.4595,-0.4597,-0.4548,-0.454,-0.4597,-0.4597,-0.4597,-0.4597,-0.4597,-0.4597,-0.4373,-0.4406,-0.4408,-0.4447,-0.4455,-0.4482,-0.4493,-0.4506,-0.4518,-0.455,-0.4569,-0.4574,-0.4587,-0.461,-0.463,-0.4632,-0.4641,-0.465,-0.4651,-0.4606,-0.46,-0.4594,-0.4587,-0.4652,-0.4652,-0.4698,-0.4698,-0.4699]},{"header":{"parameterUnit":"m.s-1","parameterCategory":1,"la1":30.2991,"la2":30.254,"lo1":-89.0895,"lo2":-89.0444,"dy":0.0017,"dx":0.0017,"nx":28,"ny":28,"refTime":"2023-10-10T21:00:00:Z","depth":0,"parameterNumber":3,"parameterNumberName":"V-component_of_WINDS"},"data":[0,0,0,0,0,0,0,0,0,0,0,0,0,0,0,0,0,0,0,0,0,0,0,0,0,0,0,0,0,0,0,0,0,0,0,0,0,0,0,0,0,0,0,0,0,0,0,0,0,0,0,0,0,0,0,0,0,0,-6.7277,-6.7279,0,-6.739,-6.7392,-6.7393,-6.7328,-6.7325,-6.7322,-6.7319,-6.7428,-6.7434,-6.744,0,0,0,0,0,0,0,0,0,0,0,0,0,-6.6999,-6.7004,-6.7277,-6.7279,-6.728,-6.739,-6.7392,-6.7393,-6.7328,-6.7325,-6.7321,-6.7317,-6.7426,-6.7433,-6.744,0,0,0,0,0,0,0,0,0,0,0,0,0,-6.7116,-6.7006,-6.7277,-6.7261,-6.7261,-6.739,-6.7392,-6.7394,-6.7329,-6.7325,-6.732,-6.7315,-6.7424,-6.7433,-6.7441,-6.759,0,0,-6.7468,-6.7472,0,0,0,0,0,0,0,0,-6.711,-6.7127,-6.7262,-6.7263,-6.7262,-6.734,-6.7334,-6.7459,-6.733,-6.7303,-6.7319,-6.7313,-6.7402,-6.7413,-6.7444,-6.7595,-6.76,-6.7469,-6.7474,-6.7478,-6.7481,0,0,0,0,0,0,0,-6.7102,-6.7121,-6.7322,-6.7264,-6.7264,-6.7246,-6.7258,-6.7357,-6.7378,-6.7305,-6.7301,-6.7315,-6.7402,-6.7436,-6.7446,-6.7602,-6.7469,-6.7477,-6.7482,-6.7485,-6.788,-6.7885,0,0,0,0,0,0,-6.7096,-6.7115,-6.7318,-6.7325,-6.7173,-6.7255,-6.7268,-6.732,-6.7377,-6.7381,-6.7319,-6.7312,-6.7423,-6.7436,-6.745,-6.7628,-6.7478,-6.7486,-6.7491,-6.7875,-6.7881,-6.7886,0,0,0,0,0,0,-6.709,-6.7114,-6.7314,-6.7219,-6.7243,-6.7265,-6.7324,-6.7325,-6.7359,-6.7387,-6.739,-6.7351,-6.742,-6.7437,-6.7556,-6.763,-6.749,-6.7498,-6.7868,-6.7877,-6.7884,-6.7985,0,0,0,0,0,0,-6.7082,-6.7113,-6.7171,-6.7221,-6.7248,-6.742,-6.7329,-6.733,-6.7375,-6.7366,-6.7418,-6.7422,-6.7418,-6.7543,-6.7565,-6.764,-6.7505,-6.7862,-6.7872,-6.7881,-6.7975,-6.7995,-6.8012,0,0,0,0,0,-6.7073,-6.7194,-6.7175,-6.7199,-6.7322,-6.7425,-6.744,-6.7435,-6.7381,-6.7439,-6.7457,-6.742,-6.7619,-6.7556,-6.758,-6.7659,-6.7857,-6.7869,-6.788,-6.7966,-6.7991,-6.8012,0,0,0,0,0,0,-6.715,-6.72,-6.7179,-6.7321,-6.7369,-6.7414,-6.7487,-6.7461,-6.7524,-6.7513,-6.7502,-6.7514,-6.7638,-6.766,-6.7589,-6.7805,-6.7729,-6.7746,-6.7786,-6.781,-6.7828,-6.782,-6.7512,0,0,0,0,0,-6.7184,-6.7265,-6.7304,-6.7425,-6.745,-6.7465,-6.7509,-6.7501,-6.755,-6.7569,-6.7596,-6.7643,-6.7716,-6.7764,-6.7833,-6.7978,-6.7987,-6.8043,-6.8062,-6.8077,-6.8092,-6.8169,-6.8194,-6.7925,-6.7925,-6.7925,0,0,-6.7254,-6.7292,-6.7343,-6.7441,-6.7478,-6.756,-6.7482,-6.7572,-6.7633,-6.7582,-6.7696,-6.7718,-6.7769,-6.7902,-6.7961,-6.7924,-6.8168,-6.8092,-6.8104,-6.811,-6.8183,-6.8209,-6.8232,-6.7933,-6.7931,-6.793,0,0,-6.7425,-6.7462,-6.7566,-6.7605,-6.7662,-6.7671,-6.7696,-6.7745,-6.7758,-6.7872,-6.7836,-6.7906,-6.8032,-6.8071,-6.8107,-6.8291,-6.8259,-6.8314,-6.8411,-6.8486,-6.8508,-6.8526,-6.8591,-6.8615,-6.8328,-6.8328,-6.8329,0,-6.7504,-6.7629,-6.7623,-6.7717,-6.776,-6.772,-6.7825,-6.7862,-6.7938,-6.7968,-6.7925,-6.8083,-6.8115,-6.8255,-6.83,-6.8331,-6.8358,-6.8308,-6.8506,-6.8524,-6.8542,-6.8603,-6.8628,-6.8335,-6.8334,-6.8333,-6.8333,0,-6.7723,-6.781,-6.7888,-6.7965,-6.8016,-6.8115,-6.8122,-6.8175,-6.8162,-6.8175,-6.8291,-6.8328,-6.8404,-6.8436,-6.8424,-6.8575,-6.855,-6.8507,-6.843,-6.8574,-6.8631,-6.8655,-6.8344,-6.8341,-6.834,-6.8338,0,0,-6.7946,-6.8018,-6.8047,-6.8081,-6.8141,-6.8207,-6.8303,-6.8378,-6.8424,-6.8477,-6.8556,-6.8664,-6.8625,-6.8666,-6.8657,-6.8723,-6.8866,-6.8672,-6.8673,-6.8706,-6.9033,-6.9065,-6.9093,-6.8845,-6.8849,-6.8853,-6.9028,0,-6.8119,-6.829,-6.8287,-6.8444,-6.8524,-6.8486,-6.857,-6.8614,-6.8629,-6.8696,-6.871,-6.8787,-6.873,-6.8754,-6.8818,-6.8835,-6.8931,-6.8822,-6.8917,-6.892,-6.8905,-6.9123,-6.9157,-6.9321,-6.9051,-6.9055,-6.9058,0,-6.8345,-6.8408,-6.8574,-6.8622,-6.8655,-6.8731,-6.8799,-6.8865,-6.8914,-6.8919,-6.8966,-6.8946,-6.9041,-6.8963,-6.9093,-6.9019,-6.9057,-6.9071,-6.9077,-6.9085,-6.8997,-6.9136,-6.9373,-6.9397,-6.9093,-6.9091,-6.9088,0,-6.849,-6.8616,-6.8731,-6.8761,-6.8821,-6.8874,-6.8901,-6.8946,-6.8991,-6.9051,-6.908,-6.9149,-6.9186,-6.9239,-6.9238,-6.9181,-6.9369,-6.9291,-6.9375,-6.9375,-6.9416,-6.9413,-6.9662,-6.9442,-6.9441,-6.9441,-6.944,0,-6.8684,-6.8786,-6.8797,-6.8868,-6.8981,-6.8976,-6.9088,-6.9109,-6.9149,-6.9222,-6.9193,-6.9261,-6.9256,-6.9325,-6.9324,-6.9432,-6.9449,-6.9454,-6.9453,-6.9457,-6.9456,-6.9481,-6.947,-6.9447,-6.9446,-6.9445,-6.9444,0,-6.8864,-6.8876,-6.8999,-6.9046,-6.906,-6.9141,-6.918,-6.9246,-6.9257,-6.935,-6.9371,-6.9389,-6.9468,-6.9472,-6.9563,-6.9563,-6.9693,-6.9679,-6.9677,-6.9674,-6.9758,-6.975,-7.0031,-7.0067,-6.9824,-6.9827,-6.9828,0,-6.8987,-6.9066,-6.9121,-6.9169,-6.92,-6.9277,-6.9323,-6.9321,-6.937,-6.9432,-6.949,-6.9567,-6.9629,-6.9757,-6.9776,-6.9845,-6.9832,-6.9926,-6.9842,-6.9843,-6.9832,-6.9828,-6.9835,-6.9942,-6.9944,-6.9947,-6.9948,0,-6.9204,-6.9206,-6.9276,-6.9348,-6.9405,-6.9461,-6.9513,-6.9553,-6.9556,-6.9613,-6.9695,-6.9743,-6.9836,-6.9912,-6.998,-7.0004,-6.9977,-6.9975,-6.9998,-7.0002,-6.9998,-7.0001,-6.9721,-6.9968,-6.9966,-6.9965,-6.9964,-6.9963,-6.9359,-6.9427,-6.9477,-6.9555,-6.9595,-6.9644,-6.9709,-6.9729,-6.9798,-6.9875,-6.9869,-6.9959,-7.0005,-7.0093,-7.0123,-7.0192,-7.016,-7.0193,-7.0201,-7.021,-7.0218,-6.9988,-7.0204,-7.0203,-7.0203,-7.0202,-7.0202,0,-6.9574,-6.9604,-6.9677,-6.9751,-6.9813,-6.9784,-6.9839,-6.9892,-6.9973,-7.0019,-7.008,-7.0174,-7.0247,-7.0273,-7.0344,-7.0394,-7.0383,-7.0413,-7.0408,-7.0414,-7.0243,-7.0216,-7.042,-7.042,-7.042,-7.042,-7.042,-7.042,-6.9693,-6.9806,-6.9814,-6.9945,-6.9974,-7.0065,-7.0099,-7.0143,-7.018,-7.0287,-7.0348,-7.0365,-7.0403,-7.0476,-7.0541,-7.0547,-7.0574,-7.0609,-7.0609,-7.0448,-7.0427,-7.0406,-7.038,-7.0615,-7.0615,-7.0774,-7.0775,-7.0776]}]]